Location: Newark
(36.4904°N, 5.5399°E)
Time: 10:59:54
(UTC+00:00)

Falcon 9 debris - Visible Passes

Search period start: 23 July 2019 00:00
Search period end: 02 August 2019 00:00
Orbit: 431 x 439 km, 53.0° (Epoch: 22 July)

Date Brightness Start Highest point End Pass type
(mag) Time Alt. Az. Time Alt. Az. Time Alt. Az.
23 Jul 6.7 00:08:56 10° N 00:08:56 10° N 00:08:56 10° N visible
25 Jul 6.3 03:35:24 10° N 03:37:18 14° NNE 03:39:11 10° ENE visible
26 Jul 6.6 02:53:56 10° N 02:54:49 11° NNE 02:55:40 10° NE visible
27 Jul 4.9 03:46:56 10° NNW 03:50:09 36° NE 03:53:22 10° ESE visible
27 Jul 2.9 20:31:47 10° SW 20:35:13 79° SE 20:38:41 10° NE visible
27 Jul 6.3 22:10:38 10° WNW 22:12:38 14° NNW 22:14:38 10° N visible
28 Jul 5.6 03:04:52 10° NNW 03:07:48 25° NE 03:10:42 10° E visible
28 Jul 3.3 19:49:41 10° SSW 19:52:59 46° SE 19:56:19 10° ENE visible
28 Jul 5.9 21:27:37 10° W 21:30:12 19° NNW 21:32:47 10° NNE visible
29 Jul 6.1 02:22:55 10° NNW 02:25:23 18° NNE 02:27:51 10° ENE visible
29 Jul 3.3 03:59:17 10° WNW 04:02:37 50° SW 04:05:57 10° SSE visible
29 Jul 5.4 20:44:48 10° W 20:47:47 27° NW 20:50:48 10° NNE visible
30 Jul 6.4 01:41:05 10° N 01:42:55 14° NNE 01:44:46 10° ENE visible
30 Jul 3.0 03:16:56 10° NW 03:20:23 87° SW 03:23:48 10° SE visible
30 Jul 4.6 20:02:10 10° WSW 20:05:26 40° NW 20:08:44 10° NNE visible
31 Jul 6.7 00:59:41 10° N 01:00:26 11° NNE 01:01:12 10° NE visible
31 Jul 3.7 02:34:42 10° NW 02:38:06 56° NE 02:41:29 10° ESE visible
31 Jul 3.6 19:19:41 10° SW 19:23:07 64° NW 19:26:34 10° NE visible
31 Jul 6.6 20:59:33 10° NW 21:00:44 11° NNW 21:01:55 10° N visible
01 Aug 6.3 20:16:11 10° WNW 20:18:14 15° NNW 20:20:18 10° N visible
